{"data":{"norad_id":59206,"intl_designator":"2024-046F","name":"STARLINK-31247","alt_names":[],"object_type":"PAYLOAD","status":"ACTIVE","operator":null,"country":"US","launch_date":"2024-03-11","launch_site_code":"AFWTR","launch_vehicle":null,"mission":null,"orbit_class":"UNKNOWN","rcs_meters":null,"size_class":null,"mass_kg":null,"dimensions":null,"purposes":["comms"],"wikipedia_slug":null,"has_3d_model":false,"image_url":null,"decayed_at":null,"tle_current":{"epoch":"2026-09-20T10:19:37.143264Z","epoch_age_seconds":164921,"freshness":"FRESH","line1":"1 59206U 24046F   26263.43029101  .00001389  00000+0  52237-4 0  9990","line2":"2 59206  53.1610 330.1921 0001278  97.4202 262.6946 15.34395697142870","mean_motion":15.34395697,"eccentricity":0.0001278,"inclination_deg":53.161,"raan_deg":330.1921,"arg_perigee_deg":97.4202,"mean_anomaly_deg":262.6946,"bstar":5.2237e-5,"rev_number":14287,"period_min":93.848021264361,"perigee_km":461.84176864262,"apogee_km":463.590290677,"semimajor_km":6840.8530296598,"source":"CELESTRAK","updated_at":"2026-09-21T09:00:34.068851Z"}}}